Terminal Aerodrome Forecast
Issued by NWS

Home | Current Version | Previous Version | Text Only | Print | Product List | Glossary On
Versions: 1 2 3 4 5 6 7 8 9 10 11 12 13 14 15 16 17 18 19 20 21
362
FTAK31 PAJN 180534
TAFAKT
TAF
PAKT 180534Z 1806/1906 12006KT 6SM -RA BR FEW010 SCT025 OVC035
     FM180900 15010G20KT 2SM -RA BR OVC020 WS020/13035KT
     FM181200 14018G33KT 4SM -RA BR OVC020 WS020/13045KT
     FM181800 14012G20KT 4SM -RA BR BKN020 OVC030 WS020/13035KT
      AMD LTD TO CLD VIS AND WIND 1806/1815=

USA.gov is the U.S. government's official web portal to all federal, state and local government web resources and services.